Change the Weather History Date:

Tuesday, June 17, 2014

  Actual Average (KCAG) Record (KCAG)
Temperature  
Mean Temperature 60 °F 60 °F  
Max Temperature 80 °F 79 °F 92 °F (2012)
Min Temperature 40 °F 41 °F 34 °F (1998)
Degree Days  
Heating Degree Days 5 5  
Month to date heating degree days 129  
Since 1 June heating degree days 129  
Since 1 July heating degree days 8588  
Cooling Degree Days 0 0  
Month to date cooling degree days 0  
Year to date cooling degree days 0  
Since 1 June cooling degree days 0  
Growing Degree Days 10 (Base 50)    
Moisture  
Dew Point 26 °F    
Average Humidity 29    
Maximum Humidity 70    
Minimum Humidity 13    
Precipitation  
Precipitation 0.00 in 0.04 in 0.61 in (2004)
Month to date precipitation 0.86  
Year to date precipitation 7.05  
Sea Level Pressure  
Sea Level Pressure 29.89 in    
Wind  
Wind Speed 14 mph (SW)    
Max Wind Speed 36 mph    
Max Gust Speed 48 mph    
Visibility 10 miles    
Events Rain    
T = Trace of Precipitation, MM = Missing Value Source: NWS Daily Summary

Daily Weather History Graph

Daily Weather History Graph

Search for Another Location

Airport or City:

Trip Planner

Search our weather history database for the weather conditions in past years. The results will help you decide how hot, cold, wet, or windy it might be!

Date:

Astronomy

Jun. 17, 2014 Rise Set
Actual Time 5:37 AM MDT 8:44 PM MDT
Civil Twilight 5:03 AM MDT 9:18 PM MDT
Nautical Twilight 4:20 AM MDT 10:01 PM MDT
Astronomical Twilight 3:29 AM MDT 10:52 PM MDT
Moon No Moon Rise 10:57 AM MDT (6/17)
Length of Visible Light 16h 14m
Length of Day
15h 07m
Waning Gibbous, 73% of the Moon is Illuminated
Jun 17
Waning Gibbous
Jun 19
Last Quarter
Jun 27
New
Jul 5
First Quarter
Jul 12
Full

Hourly Weather History & Observations

Time (MDT) Temp. Windchill Dew Point Humidity Pressure Visibility Wind Dir Wind Speed Gust Speed Precip Events Conditions
12:15 AM 56.3 °F - 25.3 °F 30% 29.84 in 10.0 mi East 12.7 mph - N/A   Scattered Clouds
12:35 AM 55.8 °F - 26.2 °F 32% 29.84 in 10.0 mi East 10.4 mph - N/A   Clear
12:55 AM 54.5 °F - 27.0 °F 35% 29.84 in 10.0 mi ENE 6.9 mph - N/A   Clear
1:15 AM 53.8 °F - 27.5 °F 36% 29.84 in 10.0 mi East 6.9 mph - N/A   Scattered Clouds
1:35 AM 54.7 °F - 25.9 °F 33% 29.84 in 10.0 mi Calm Calm - N/A   Clear
1:55 AM 52.0 °F - 27.9 °F 39% 29.83 in 10.0 mi Calm Calm - N/A   Clear
2:15 AM 53.6 °F - 28.2 °F 38% 29.83 in 10.0 mi South 5.8 mph - N/A   Scattered Clouds
2:35 AM 50.9 °F - 30.7 °F 46% 29.83 in 10.0 mi South 5.8 mph - N/A   Scattered Clouds
2:55 AM 50.9 °F - 30.0 °F 45% 29.83 in 10.0 mi SE 5.8 mph - N/A   Mostly Cloudy
3:15 AM 56.1 °F - 25.9 °F 31% 29.84 in 10.0 mi SSW 8.1 mph - N/A   Mostly Cloudy
3:35 AM 63.5 °F - 21.4 °F 20% 29.84 in 10.0 mi SSW 12.7 mph 21.9 mph N/A   Mostly Cloudy
3:55 AM 63.1 °F - 20.3 °F 19% 29.85 in 10.0 mi SSW 11.5 mph 17.3 mph N/A   Mostly Cloudy
4:15 AM 64.0 °F - 18.9 °F 18% 29.86 in 10.0 mi SSW 11.5 mph 18.4 mph N/A   Mostly Cloudy
4:35 AM 63.5 °F - 18.5 °F 18% 29.86 in 10.0 mi SSW 13.8 mph 24.2 mph N/A   Mostly Cloudy
4:55 AM 62.2 °F - 18.7 °F 19% 29.86 in 10.0 mi South 10.4 mph 19.6 mph N/A   Scattered Clouds
5:15 AM 61.2 °F - 18.7 °F 19% 29.86 in 10.0 mi South 8.1 mph - N/A   Clear
5:35 AM 60.3 °F - 18.3 °F 20% 29.87 in 10.0 mi South 10.4 mph - N/A   Scattered Clouds
5:55 AM 62.2 °F - 18.1 °F 18% 29.87 in 10.0 mi South 12.7 mph 17.3 mph N/A   Overcast
6:35 AM 62.8 °F - 19.9 °F 19% 29.88 in 10.0 mi South 11.5 mph - N/A   Overcast
6:55 AM 63.5 °F - 20.3 °F 19% 29.89 in 10.0 mi South 11.5 mph 19.6 mph N/A   Overcast
7:15 AM 63.1 °F - 21.6 °F 20% 29.89 in 10.0 mi South 8.1 mph - N/A   Overcast
7:35 AM 66.2 °F - 19.4 °F 17% 29.89 in 10.0 mi South 15.0 mph 23.0 mph N/A   Mostly Cloudy
7:55 AM 67.1 °F - 18.9 °F 16% 29.89 in 10.0 mi SSW 18.4 mph 27.6 mph N/A   Scattered Clouds
8:15 AM 67.5 °F - 18.9 °F 16% 29.89 in 10.0 mi SSW 19.6 mph 27.6 mph N/A   Clear
8:35 AM 67.6 °F - 19.9 °F 16% 29.89 in 10.0 mi South 20.7 mph 27.6 mph N/A   Clear
8:55 AM 68.5 °F - 22.1 °F 17% 29.89 in 10.0 mi South 20.7 mph 27.6 mph N/A   Clear
9:15 AM 69.3 °F - 22.1 °F 17% 29.89 in 10.0 mi South 23.0 mph 36.8 mph N/A   Clear
9:35 AM 70.5 °F - 20.1 °F 15% 29.89 in 10.0 mi SSW 21.9 mph 33.4 mph N/A   Clear
9:55 AM 72.0 °F - 21.2 °F 15% 29.89 in 10.0 mi South 21.9 mph 36.8 mph N/A   Clear
10:15 AM 71.8 °F - 20.8 °F 15% 29.89 in 10.0 mi SW 20.7 mph 33.4 mph N/A   Clear
10:35 AM 73.0 °F - 21.9 °F 15% 29.88 in 10.0 mi SSW 25.3 mph 32.2 mph N/A   Scattered Clouds
10:55 AM 73.8 °F - 21.9 °F 14% 29.88 in 10.0 mi SSW 25.3 mph 36.8 mph N/A   Scattered Clouds
11:15 AM 74.5 °F - 23.4 °F 15% 29.87 in 10.0 mi SW 19.6 mph 33.4 mph N/A   Scattered Clouds
11:35 AM 73.8 °F - 23.5 °F 15% 29.88 in 10.0 mi SW 16.1 mph 28.8 mph N/A   Scattered Clouds
12:15 PM 75.4 °F - 25.0 °F 15% 29.86 in 10.0 mi South 25.3 mph 35.7 mph N/A   Mostly Cloudy
12:35 PM 74.8 °F - 24.3 °F 15% 29.85 in 10.0 mi South 17.3 mph 38.0 mph N/A   Scattered Clouds
12:55 PM 74.7 °F - 25.0 °F 16% 29.85 in 10.0 mi SSW 18.4 mph 29.9 mph N/A   Scattered Clouds
1:15 PM 74.1 °F - 24.1 °F 15% 29.84 in 10.0 mi SSW 26.5 mph 33.4 mph N/A   Mostly Cloudy
1:35 PM 75.0 °F - 24.6 °F 15% 29.83 in 10.0 mi South 27.6 mph 34.5 mph N/A   Mostly Cloudy
1:55 PM 78.3 °F - 24.6 °F 14% 29.82 in 10.0 mi SW 27.6 mph 36.8 mph N/A   Scattered Clouds
2:15 PM 78.6 °F - 25.0 °F 14% 29.82 in 10.0 mi SSW 23.0 mph 36.8 mph N/A   Scattered Clouds
2:35 PM 75.9 °F - 23.9 °F 14% 29.81 in 10.0 mi South 25.3 mph 36.8 mph N/A   Scattered Clouds
2:55 PM 76.1 °F - 24.4 °F 15% 29.81 in 10.0 mi SSW 21.9 mph 32.2 mph N/A   Mostly Cloudy
3:15 PM 77.0 °F - 24.3 °F 14% 29.80 in 10.0 mi South 18.4 mph 36.8 mph N/A   Mostly Cloudy
3:35 PM 76.6 °F - 22.1 °F 13% 29.80 in 10.0 mi SSW 20.7 mph 33.4 mph N/A   Mostly Cloudy
3:55 PM 79.0 °F - 23.5 °F 13% 29.79 in 10.0 mi South 27.6 mph 35.7 mph N/A   Scattered Clouds
4:15 PM 77.0 °F - 23.4 °F 14% 29.79 in 10.0 mi SSW 23.0 mph 32.2 mph N/A   Scattered Clouds
4:35 PM 75.9 °F - 22.6 °F 14% 29.79 in 10.0 mi South 23.0 mph 31.1 mph N/A   Scattered Clouds
4:55 PM 75.2 °F - 22.5 °F 14% 29.79 in 10.0 mi WSW 35.7 mph 48.3 mph N/A   Mostly Cloudy
5:15 PM 65.3 °F - 32.7 °F 30% 29.82 in 10.0 mi NW 27.6 mph 34.5 mph N/A   Overcast
5:35 PM 63.0 °F - 34.0 °F 34% 29.83 in 10.0 mi NW 20.7 mph 28.8 mph N/A   Overcast
5:55 PM 62.2 °F - 34.9 °F 36% 29.84 in 10.0 mi NNW 18.4 mph 26.5 mph N/A Rain Light Rain
6:15 PM 62.1 °F - 33.3 °F 34% 29.86 in 10.0 mi NW 26.5 mph 29.9 mph N/A   Mostly Cloudy
6:35 PM 59.2 °F - 33.3 °F 38% 29.87 in 10.0 mi NW 24.2 mph 29.9 mph N/A   Mostly Cloudy
6:55 PM 56.8 °F - 32.9 °F 40% 29.88 in 10.0 mi NW 24.2 mph 29.9 mph N/A   Mostly Cloudy
7:15 PM 56.3 °F - 32.5 °F 41% 29.93 in 10.0 mi NW 15.0 mph 35.7 mph N/A   Mostly Cloudy
7:35 PM 55.2 °F - 32.9 °F 43% 29.94 in 10.0 mi NW 19.6 mph 26.5 mph N/A   Mostly Cloudy
7:55 PM 52.5 °F - 33.8 °F 49% 29.96 in 10.0 mi NW 23.0 mph 34.5 mph N/A   Mostly Cloudy
8:13 PM 50.4 °F - 33.6 °F 53% 30.01 in 10.0 mi NW 18.4 mph 33.4 mph N/A   Mostly Cloudy
8:35 PM 47.1 °F - 32.0 °F 56% 30.01 in 10.0 mi NW 25.3 mph 33.4 mph N/A   Mostly Cloudy
8:55 PM 46.6 °F - 31.8 °F 56% 30.06 in 10.0 mi NNW 13.8 mph 28.8 mph N/A   Scattered Clouds
9:15 PM 46.4 °F 41.1 °F 32.0 °F 57% 30.06 in 10.0 mi WNW 11.5 mph - N/A   Mostly Cloudy
9:35 PM 44.8 °F 40.4 °F 32.2 °F 61% 30.07 in 10.0 mi WNW 8.1 mph - N/A   Scattered Clouds
9:55 PM 44.6 °F 40.7 °F 32.4 °F 62% 30.12 in 10.0 mi WNW 6.9 mph 16.1 mph N/A   Scattered Clouds
10:15 PM 43.7 °F 39.7 °F 32.0 °F 63% 30.11 in 10.0 mi NNW 6.9 mph - N/A   Scattered Clouds
10:35 PM 42.4 °F 39.6 °F 32.0 °F 67% 30.14 in 10.0 mi West 4.6 mph - N/A   Scattered Clouds
11:15 PM 41.0 °F - 31.3 °F 68% 30.14 in 10.0 mi Calm Calm - N/A   Scattered Clouds
11:35 PM 40.1 °F - 30.9 °F 70% 30.14 in 10.0 mi Calm Calm - N/A   Scattered Clouds